Accueil
METAR-TAF:

METAR-TAF

Aéroports :

Morlaix, France

Aéroport de Morlaix Ploujean

latitude: 48-36N, longitude: 3-49W, altitude: 84 m

Observation

Le bulletin a été fait il y a 5 heures et 57 minutes, à 20:00 UTC
Vent 8 kt de sud-ouest
Température 17°C
Humidité 77%
Pression 1021 hPa
Visibilité 10 km ou plus
Quelques nuages à une hauteur de 4500 ft

METAR: LFRU 232000Z AUTO 23008KT 9999 FEW045 17/13 Q1021

Heure: 03:57 (01:57 UTC)


TAF: absent

Observations et prévisions météorologiques de plus de 4000 aéroports (messages METAR et TAF).

Les stations disponibles sont représentées par des disques jaunes et rouges sur la carte.

Passer la souris dessus pour voir le nom de la station.

Cliquer dessus pour voir les observations et prévisions météorologiques.

Pour changer de carte: cliquez sur les boutons verts avec une croix noire pour zoomer, sur le bouton vert avec un tiret pour effectuer un zoom arrière, ou sur les flèches vertes pour les cartes adjacentes.


METAR-TAF: